Newport News, VA

11:25 AM EDT on August 22, 2017 (GMT -0400)
Newport News-Williamsburg International

Weather History for KPHF - October, 2013

Change the Weather History Date:

Tuesday, October 8, 2013

  Actual Average Record
Temperature  
Mean Temperature 65 °F -  
Max Temperature 66 °F 72 °F 90 °F (1962)
Min Temperature 64 °F 54 °F 3 °F (2003)
Growing Degree Days 15 (Base 50)    
Moisture  
Dew Point 51 °F    
Average Humidity 59    
Maximum Humidity 73    
Minimum Humidity 48    
Precipitation  
Precipitation 0.00 in - - ()
Sea Level Pressure  
Sea Level Pressure 30.16 in    
Wind  
Wind Speed 11 mph (NNE)    
Max Wind Speed 15 mph    
Max Gust Speed 26 mph    
Visibility 10 miles    
Events      
Averages and records for this station are not official NWS values.
T = Trace of Precipitation, MM = Missing Value Source: NWS Daily Summary

Daily Weather History Graph

Daily Weather History Graph

Search for Another Location

Airport or City:

Trip Planner

Search our weather history database for the weather conditions in past years. The results will help you decide how hot, cold, wet, or windy it might be!

Date:

Astronomy

Oct. 08, 2013 Rise Set
Actual Time 7:07 AM EDT 6:38 PM EDT
Civil Twilight 6:41 AM EDT 7:04 PM EDT
Nautical Twilight 6:11 AM EDT 7:34 PM EDT
Astronomical Twilight 5:41 AM EDT 8:04 PM EDT
Moon 10:54 AM EDT (10/8) 9:18 PM EDT (10/8)
Length of Visible Light 12h 23m
Length of Day
11h 30m
Waxing Crescent, 16% of the Moon is Illuminated
Oct 8
Waxing Crescent
Oct 11
First Quarter
Oct 18
Full
Oct 26
Last Quarter
Nov 3
New

Hourly Weather History & Observations

Time (EDT) Temp. Dew Point Humidity Pressure Visibility Wind Dir Wind Speed Gust Speed Precip Events Conditions
12:43 AM 64.4 °F 55.4 °F 73% 30.03 in 10.0 mi North 10.4 mph - N/A   Overcast
12:54 AM 66.0 °F 54.0 °F 65% 30.03 in 10.0 mi NNE 9.2 mph - N/A   Overcast
1:54 AM 66.0 °F 52.0 °F 60% 30.05 in 10.0 mi North 11.5 mph 19.6 mph N/A   Overcast
2:54 AM 64.9 °F 48.9 °F 56% 30.06 in 10.0 mi North 10.4 mph 23.0 mph N/A   Overcast
3:54 AM 64.9 °F 48.0 °F 54% 30.07 in 10.0 mi North 9.2 mph - N/A   Overcast
4:54 AM 64.0 °F 48.9 °F 58% 30.10 in 10.0 mi North 6.9 mph - N/A   Overcast
5:54 AM 64.0 °F 50.0 °F 60% 30.12 in 10.0 mi NNE 6.9 mph - N/A   Overcast
6:54 AM 66.0 °F 46.0 °F 48% 30.13 in 10.0 mi NE 12.7 mph 21.9 mph N/A   Overcast
7:54 AM 64.9 °F 48.0 °F 54% 30.15 in 10.0 mi NNE 13.8 mph 23.0 mph N/A   Overcast
8:54 AM 66.0 °F 48.9 °F 54% 30.18 in 10.0 mi NNE 13.8 mph 25.3 mph N/A   Overcast
9:54 AM 66.0 °F 50.0 °F 56% 30.19 in 10.0 mi NNE 10.4 mph 23.0 mph N/A   Scattered Clouds
10:54 AM 66.0 °F 50.0 °F 56% 30.19 in 10.0 mi NNE 11.5 mph 25.3 mph N/A   Overcast
11:54 AM 66.9 °F 48.9 °F 52% 30.20 in 10.0 mi NE 15.0 mph 23.0 mph N/A   Overcast
12:54 PM 66.0 °F 48.0 °F 52% 30.19 in 10.0 mi NE 12.7 mph 19.6 mph N/A   Overcast
1:54 PM 66.9 °F 48.0 °F 51% 30.18 in 10.0 mi NNE 13.8 mph 19.6 mph N/A   Overcast
2:54 PM 66.0 °F 48.0 °F 52% 30.18 in 10.0 mi NE 13.8 mph 21.9 mph N/A   Mostly Cloudy
3:54 PM 66.0 °F 48.9 °F 54% 30.19 in 10.0 mi NNE 11.5 mph 18.4 mph N/A   Scattered Clouds
4:54 PM 66.0 °F 51.1 °F 59% 30.18 in 10.0 mi NNE 9.2 mph - N/A   Overcast
5:54 PM 66.0 °F 52.0 °F 60% 30.19 in 10.0 mi NE 10.4 mph 20.7 mph N/A   Mostly Cloudy
6:50 PM 66.2 °F 53.6 °F 64% 30.19 in 10.0 mi NE 11.5 mph - N/A   Overcast
6:54 PM 66.0 °F 54.0 °F 65% 30.19 in 10.0 mi NNE 9.2 mph - N/A   Overcast
7:54 PM 66.0 °F 55.0 °F 68% 30.19 in 10.0 mi NE 13.8 mph 21.9 mph N/A   Overcast
8:14 PM 66.2 °F 53.6 °F 64% 30.20 in 10.0 mi ENE 15.0 mph 26.5 mph N/A   Overcast
8:54 PM 66.9 °F 53.1 °F 61% 30.20 in 10.0 mi ENE 15.0 mph 24.2 mph N/A   Overcast
9:26 PM 66.2 °F 53.6 °F 64% 30.21 in 10.0 mi NE 12.7 mph 20.7 mph N/A   Mostly Cloudy
9:54 PM 66.0 °F 53.1 °F 63% 30.21 in 10.0 mi NE 11.5 mph 21.9 mph N/A   Mostly Cloudy
10:54 PM 66.0 °F 52.0 °F 60% 30.21 in 10.0 mi NE 13.8 mph 26.5 mph N/A   Mostly Cloudy
11:54 PM 66.0 °F 51.1 °F 59% 30.21 in 10.0 mi NE 15.0 mph 20.7 mph N/A   Mostly Cloudy